Weather History for Milton, FL

Change the Weather History Date:

Wednesday, February 13, 2013

  Actual Average (KNSE) Record (KNSE)
Temperature  
Mean Temperature 60 °F -  
Max Temperature 71 °F 63 °F 73 °F (2000)
Min Temperature 46 °F 45 °F 25 °F (2006)
Degree Days  
Heating Degree Days 6    
Growing Degree Days 10 (Base 50)    
Moisture  
Dew Point 52 °F    
Average Humidity 83    
Maximum Humidity 93    
Minimum Humidity 62    
Precipitation  
Precipitation 0.22 in - - ()
Sea Level Pressure  
Sea Level Pressure 29.88 in    
Wind  
Wind Speed 6 mph (NW)    
Max Wind Speed 15 mph    
Max Gust Speed 25 mph    
Visibility 10 miles    
Events Rain    
Averages and records for this station are not official NWS values.
T = Trace of Precipitation, MM = Missing Value Source: NWS Daily Summary

Daily Weather History Graph

Daily Weather History Graph

Search for Another Location

Airport:

Trip Planner

Search our weather history database for the weather conditions in past years. The results will help you decide how hot, cold, wet, or windy it might be!

Date:

Astronomy

Feb. 13, 2013 Rise Set
Actual Time 6:30 AM CST 5:34 PM CST
Civil Twilight 6:05 AM CST 5:59 PM CST
Nautical Twilight 5:37 AM CST 6:27 PM CST
Astronomical Twilight 5:09 AM CST 6:55 PM CST
Moon 8:18 AM CST (2/13) 9:15 PM CST (2/13)
Length of Visible Light 11h 53m
Length of Day
11h 04m
Waxing Crescent, 14% of the Moon is Illuminated
Feb 13
Waxing Crescent
Feb 17
First Quarter
Feb 25
Full
Mar 4
Last Quarter
Mar 11
New

Hourly Weather History & Observations

Time (CST) Temp. Dew Point Humidity Pressure Visibility Wind Dir Wind Speed Gust Speed Precip Events Conditions
12:56 AM 71.1 °F 66.9 °F 87% 29.75 in 10.0 mi SW 5.8 mph - N/A   Overcast
1:12 AM 69.8 °F 66.2 °F 88% 29.79 in 10.0 mi Variable 5.8 mph - N/A   Mostly Cloudy
1:25 AM 69.8 °F 66.2 °F 88% 29.78 in 10.0 mi Variable 4.6 mph - N/A   Scattered Clouds
1:56 AM 69.1 °F 66.0 °F 90% 29.75 in 10.0 mi Variable 4.6 mph - N/A   Scattered Clouds
2:18 AM 69.8 °F 66.2 °F 88% 29.78 in 10.0 mi SW 4.6 mph - N/A   Mostly Cloudy
2:38 AM 69.8 °F 66.2 °F 88% 29.80 in 10.0 mi WSW 5.8 mph - N/A   Overcast
2:56 AM 69.1 °F 64.9 °F 87% 29.76 in 10.0 mi WSW 8.1 mph - N/A   Overcast
3:04 AM 69.8 °F 64.4 °F 83% 29.80 in 10.0 mi Variable 5.8 mph - N/A   Overcast
3:52 AM 68.0 °F 64.4 °F 88% 29.81 in 10.0 mi Variable 3.5 mph - N/A   Partly Cloudy
3:56 AM 68.0 °F 64.0 °F 87% 29.77 in 10.0 mi WSW 5.8 mph - N/A   Partly Cloudy
4:19 AM 66.2 °F 62.6 °F 88% 29.82 in 10.0 mi NW 11.5 mph 25.3 mph N/A   Mostly Cloudy
4:38 AM 64.4 °F 60.8 °F 88% 29.84 in 10.0 mi NW 9.2 mph - N/A   Scattered Clouds
4:56 AM 62.1 °F 57.9 °F 86% 29.80 in 10.0 mi WNW 6.9 mph - N/A   Clear
5:56 AM 59.0 °F 55.0 °F 87% 29.83 in 10.0 mi WNW 5.8 mph - N/A   Clear
6:56 AM 57.0 °F 51.1 °F 81% 29.84 in 10.0 mi NW 4.6 mph - N/A   Clear
7:56 AM 59.0 °F 51.1 °F 75% 29.86 in 10.0 mi WNW 9.2 mph - N/A   Clear
8:56 AM 59.0 °F 48.9 °F 69% 29.86 in 2.0 mi NW 10.4 mph - N/A   Haze
9:03 AM 60.8 °F 48.2 °F 63% 29.90 in 1.8 mi NW 9.2 mph 18.4 mph N/A   Haze
9:12 AM 62.6 °F 50.0 °F 63% 29.89 in - NW 11.5 mph - N/A   Unknown
9:56 AM 61.0 °F 48.0 °F 62% 29.88 in 10.0 mi NW 11.5 mph - N/A   Clear
10:56 AM 57.9 °F 46.9 °F 67% 29.91 in 10.0 mi NW 11.5 mph - N/A   Overcast
11:56 AM 55.0 °F 46.0 °F 72% 29.91 in 10.0 mi NW 9.2 mph - 0.00 in Rain Light Rain
12:52 PM 53.6 °F 48.2 °F 82% 29.92 in 10.0 mi NNW 4.6 mph - 0.01 in Rain Light Rain
12:56 PM 54.0 °F 48.9 °F 83% 29.88 in 10.0 mi NW 5.8 mph - 0.01 in Rain Light Rain
1:56 PM 54.0 °F 48.0 °F 80% 29.90 in 10.0 mi NNW 9.2 mph - 0.00 in Rain Light Rain
2:28 PM 51.8 °F 46.4 °F 82% 29.94 in 10.0 mi NW 11.5 mph 16.1 mph 0.01 in   Overcast
2:34 PM 51.8 °F 46.4 °F 82% 29.91 in 10.0 mi NW 5.8 mph - 0.01 in Rain Light Rain
2:56 PM 51.1 °F 46.9 °F 86% 29.91 in 10.0 mi WNW 5.8 mph - 0.02 in Rain Light Rain
3:13 PM 50.0 °F 46.4 °F 87% 29.96 in 7.0 mi NNW 15.0 mph 20.7 mph 0.04 in Rain Rain
3:43 PM 48.2 °F 44.6 °F 87% 29.94 in 9.0 mi NNW 9.2 mph 18.4 mph 0.09 in Rain Rain
3:56 PM 48.0 °F 44.1 °F 86% 29.91 in 10.0 mi NW 6.9 mph - 0.12 in Rain Rain
4:56 PM 48.0 °F 45.0 °F 89% 29.94 in 10.0 mi NW 6.9 mph - 0.07 in   Overcast
5:11 PM 48.2 °F 44.6 °F 87% 29.95 in 10.0 mi NNW 5.8 mph - N/A   Overcast
5:20 PM 48.2 °F 44.6 °F 87% 29.95 in 10.0 mi NNW 4.6 mph - N/A   Overcast
5:56 PM 48.0 °F 45.0 °F 89% 29.95 in 10.0 mi Calm Calm - N/A   Mostly Cloudy
6:56 PM 48.9 °F 45.0 °F 86% 29.97 in 10.0 mi Calm Calm - N/A   Clear
7:56 PM 48.0 °F 46.0 °F 93% 29.97 in 10.0 mi Calm Calm - N/A   Clear
8:56 PM 48.0 °F 45.0 °F 89% 29.99 in 10.0 mi Calm Calm - N/A   Partly Cloudy
9:56 PM 48.0 °F 45.0 °F 89% 30.02 in 10.0 mi Calm Calm - N/A   Partly Cloudy
10:56 PM 48.0 °F 43.0 °F 83% 30.01 in 10.0 mi NNW 8.1 mph - N/A   Clear
11:56 PM 46.9 °F 41.0 °F 80% 30.02 in 10.0 mi North 5.8 mph - N/A   Clear